www.pogodaiklimat.ru

Погода и климат >> Архив погоды >> Индия >> Ambikapur


ПОГОДА в Ambikapur

  • Прогноз погоды в Ambikapur
  • Монитор погоды в Ambikapur
  • Климат города

АРХИВ ПОГОДЫ в Ambikapur

Время (UTC), дата Ветер
(напр.,м/с)
 
Видим.   Явления Облачность Т
(С)
Тd
(С)
f
(%)
Тe
(С)
Тes
(С)
Комфортность P
(гПа)
Po
(гПа)
Тmin
(С)
Tmax
(С)
R
(мм)
R24
(мм)
S
(см)
06 13.01 С 1 4000 м ясно +20.4 +1.2 28 +22 +35 комфорт 1016.4 947.6
09 13.01 С 2 4000 м ясно +22.8 +3.6 28 +23 +29 комфорт 1013.3 945.2
12 13.01 С 2 4000 м ясно +21.6 +6.1 36 +22 +22 комфорт 1013.0 944.7 +23.0
15 13.01 штиль 0 4000 м ясно +17.2 +6.4 49 +17 +17 1015.5 946.1
18 13.01 штиль 0 4000 м ясно +14.6 +6.6 59 +14 +14 1016.5 946.4
21 13.01 штиль 0 4000 м ясно +12.4 +6.4 67 +12 +12 1016.2 945.6
00 14.01 штиль 0 4000 м ясно +11.0 +7.0 76 +10 +10 1016.6 945.5
03 14.01 штиль 0 2000 м мгла ясно +11.6 +7.7 77 +11 +16 1018.5 947.5 +8.9
06 14.01 С 2 4000 м ясно +20.6 +2.2 30 +22 +34 комфорт 1016.9 948.1
09 14.01 СЗ 2 4000 м ясно +23.4 +4.0 28 +23 +30 комфорт 1013.5 945.6
12 14.01 С 1 4000 м ясно +22.0 +6.2 36 +23 +23 комфорт 1013.2 944.9 +24.3
15 14.01 С 1 4000 м ясно +17.6 +6.4 48 +19 +19 1015.7 946.3
18 14.01 штиль 0 4000 м ясно +14.8 +6.6 58 +15 +15 1016.9 946.9
21 14.01 штиль 0 4000 м ясно +12.4 +7.3 71 +12 +12 1016.2 945.6
00 15.01 штиль 0 4000 м ясно +10.6 +7.9 83 +10 +10 1016.9 945.8
03 15.01 штиль 0 2000 м мгла ясно +11.4 +5.2 66 +11 +16 1019.1 948.1 +8.0
06 15.01 С 2 4000 м ясно +19.4 +3.8 36 +21 +33 комфорт 1016.9 947.9
09 15.01 С 2 4000 м ясно +22.4 +2.9 28 +22 +29 комфорт 1012.9 944.9
12 15.01 С 1 4000 м ясно +21.8 +5.9 36 +22 +22 комфорт 1012.5 944.2 +23.7
15 15.01 штиль 0 4000 м ясно +15.8 +6.5 54 +16 +16 1015.6 945.7
18 15.01 штиль 0 4000 м ясно +13.0 +6.2 63 +13 +13 1016.4 945.8
21 15.01 штиль 0 4000 м ясно +11.2 +5.9 70 +11 +11 1015.3 944.6
00 16.01 штиль 0 4000 м ясно +9.2 +5.5 78 +9 +9 1015.5 944.3
03 16.01 штиль 0 2000 м мгла ясно +10.4 +5.9 74 +10 +15 1017.6 946.5 +7.5
06 16.01 С 1 4000 м ясно +18.8 +5.1 40 +20 +34 опасность
простуды
1015.5 946.4
09 16.01 С 1 4000 м ясно +21.6 +2.1 28 +21 +29 комфорт 1012.7 944.4
12 16.01 С 1 4000 м ясно +20.0 +5.8 39 +22 +22 комфорт 1012.8 944.1 +22.2
15 16.01 штиль 0 4000 м ясно +15.4 +6.4 55 +15 +15 1015.4 945.5
18 16.01 штиль 0 4000 м ясно +12.8 +6.5 65 +13 +13 1016.5 945.9
03 17.01 штиль 0 2000 м мгла ясно +9.2 +4.5 72 +9 +13 1018.3 946.9 +6.3
06 17.01 С 1 4000 м ясно +17.8 +1.2 33 +19 +32 опасность
простуды
1016.5 947.0
09 17.01 С 1 4000 м ясно +23.2 +3.0 27 +23 +30 комфорт 1012.3 944.5
12 17.01 штиль 0 4000 м ясно +21.6 +5.0 34 +22 +22 комфорт 1012.5 944.2 +23.4
15 17.01 штиль 0 4000 м ясно +15.8 +6.9 55 +16 +16 1015.4 945.5
18 17.01 штиль 0 4000 м ясно +13.0 +7.1 67 +13 +13 1016.4 945.8
21 17.01 штиль 0 4000 м ясно +11.0 +7.0 76 +10 +10 1016.3 945.2
00 18.01 штиль 0 2000 м мгла ясно +9.2 +6.3 82 +8 +8 1016.7 945.3
03 18.01 штиль 0 2000 м мгла ясно +9.8 +4.8 71 +9 +14 1018.8 947.3 +6.5
06 18.01 С 2 4000 м ясно +20.0 -0.9 24 +21 +33 комфорт 1016.7 947.7
09 18.01 С 2 4000 м ясно +22.8 +3.6 28 +23 +30 комфорт 1013.0 945.0
12 18.01 С 1 4000 м ясно +22.0 +4.6 32 +22 +22 комфорт 1012.9 944.6 +23.3
15 18.01 С 1 4000 м ясно +16.4 +4.8 46 +17 +17 1015.7 946.1
18 18.01 штиль 0 4000 м ясно +13.4 +5.3 58 +13 +13 1016.6 946.2
00 19.01 штиль 0 4000 м ясно +8.2 +5.2 81 +7 +7 1017.5 945.8
03 19.01 штиль 0 2000 м мгла ясно +10.0 +5.9 76 +9 +14 1019.3 947.8 +6.9
06 19.01 С 1 4000 м ясно +20.4 +0.5 26 +22 +35 комфорт 1016.8 948.0
09 19.01 С 1 4000 м ясно +23.2 +5.4 32 +24 +31 комфорт 1013.7 945.8
12 19.01 С 1 4000 м ясно +22.4 +6.8 36 +23 +23 комфорт 1013.5 945.9 +23.6
15 19.01 штиль 0 4000 м ясно +16.8 +8.7 59 +17 +17 1016.3 946.8
18 19.01 штиль 0 4000 м ясно +14.4 +8.4 67 +14 +14 1017.0 946.9
21 19.01 штиль 0 4000 м ясно +12.0 +8.1 77 +12 +12 1016.7 945.8
00 20.01 штиль 0 4000 м ясно +10.8 +8.1 83 +10 +10 1016.4 945.3

 

Местоположение метеостанции Ambikapur (Chhattisgarh, Индия): широта 23.17 долгота 83.25 высота над уровнем моря 611 м.

В архиве по умолчанию представлена погода в Ambikapur за последнюю неделю. Архивные данные за месяц целиком и за предыдущие месяцы, начиная с января 2011 года, Вы можете получить, выбрав интересующий диапазон дат из раскрывающегося списка и нажав кнопку "Ввод!".

Внимание! Время в таблицах - всемирное. Для получения местного времени необходимо прибавить поправку, которая в Ambikapur равна 5.5 ч.

Смотрите также архив погоды в соседних городах и на ближайших метеорологических станциях:

Погода в Daltonganj (Jharkhand, Индия) (129 км)
Погода в Sundargarh (Orissa, Индия) (142 км)
Погода в Pendra Road (Chhattisgarh, Индия) (145 км)
Погода в Bilaspur (Chhattisgarh, Индия) (163 км)
Погода в Jharsuguda (Orissa, Индия) (163 км)
Погода в Hirakud (Orissa, Индия) (194 км)
Погода в Raipur Airport (Chhattisgarh, Индия) (195 км)
Погода в Sidhi (Madhya Pradesh, Индия) (198 км)
Погода в Sambalpur (Orissa, Индия) (203 км)
Погода в Ranchi (Jharkhand, Индия) (212 км)

Пояснения к столбцам:

Ветер - указаны скорость ветра в м/с - средняя за 10 мин, порывы в срок и между сроками (в фигурных скобках) и направление, откуда дует ветер: С - северный, СВ - северо-восточный, В - восточный, ЮВ - юго-восточный, Ю - южный, ЮЗ - юго-западный, З - западный, СЗ - северо-западный.
Видимость - горизонтальная дальность видимости в метрах или километрах. При видимости от 1 до 10 км при отсутствии осадков обычно наблюдается дымка, при ухудшении видимости до 1 км и менее - туман. В сухую погоду видимость может ухудшаться дымом, пылью или мглою.
Явления - указаны атмосферные явления, наблюдавшиеся в срок или в последний час перед сроком; фигурными скобками обозначены явления, наблюдавшиеся между сроками (за 1-3 часа до срока); квадратными скобками обозначены град или гололедные отложения с указанием их диаметра в мм.
Облачность - указаны через наклонную черту общая и нижняя облачность в баллах и высота нижней границы облаков в метрах; квадратными скобками обозначены формы облаков: Ci - перистые, Cs - перисто-слоистые, Cc - перисто-кучевые, Ac - высококучевые, As - высокослоистые, Sc - слоисто-кучевые, Ns - слоисто-дождевые, Cu - кучевые, Cb - кучево-дождевые. Подробнее классификацию облаков см. в Атласе облаков (PDF).
T - Температура воздуха - температура, измеренная на высоте 2 м над землей.
Td - Температура точки росы - температура, при понижении до которой содержащийся в воздухе водяной пар достигнет насыщения.
f - Относительная влажность воздуха - влажноcть воздуха, измеренная на высоте 2 м над землей.
Te - Эффективная температура - температура, которую ощущает одетый по сезону человек в тени. Характеристика душности погоды. При расчете учитывается влияние влажности воздуха и скорости ветра на теплоощущения человека.
Tes - Эффективная температура на солнце - температура, которую ощущает человек, с поправкой на солнечный нагрев. Характеристика знойности погоды. Зависит от высоты солнца над горизонтом, облачности и скорости ветра. Ночью, в пасмурную погоду, а также при ветре 12 м/с и более поправка равна нулю.
P - Атмосферное давление - приведенное к уровню моря атмосферное давление.
Po - Атмосферное давление - измеренное на уровне метеостанции атмосферное давление.
Tmin - Минимальная температура - минимум температуры воздуха на высоте 2 м над землей.
Tmax - Максимальная температура - максимум температуры воздуха на высоте 2 м над землей.
R - Количество осадков - Количество выпавших осадков за период времени, мм. При наведении курсора мыши на число - период времени, за который выпало указанное количество осадков.
R24 - Количество осадков - Количество выпавших осадков за 24 часа, мм.
S - Снежный покров - Высота снежного покрова, см. При наведении курсора мыши на число - состояние снежного покрова и степень покрытия местности в баллах.